{"data":{"norad_id":62195,"intl_designator":"2024-229D","name":"STARLINK-32672","alt_names":[],"object_type":"PAYLOAD","status":"ACTIVE","operator":null,"country":"US","launch_date":"2024-12-04","launch_site_code":"AFETR","launch_vehicle":null,"mission":null,"orbit_class":"UNKNOWN","rcs_meters":null,"size_class":null,"mass_kg":null,"dimensions":null,"purposes":["comms"],"wikipedia_slug":null,"has_3d_model":false,"image_url":null,"decayed_at":null,"tle_current":{"epoch":"2026-05-25T04:47:41.575200Z","epoch_age_seconds":61059,"freshness":"FRESH","line1":"1 62195U 24229D   26145.19978675  .00038834  00000+0  14128-2 0  9995","line2":"2 62195  42.9986 198.5422 0000826 256.8518 103.2241 15.27591212 82261","mean_motion":15.27591212,"eccentricity":8.26e-5,"inclination_deg":42.9986,"raan_deg":198.5422,"arg_perigee_deg":256.8518,"mean_anomaly_deg":103.2241,"bstar":0.0014128,"rev_number":8226,"period_min":94.266056827774,"perigee_km":482.44879228506,"apogee_km":483.58225468194,"semimajor_km":6861.1525234835,"source":"CELESTRAK","updated_at":"2026-05-25T13:38:19.606305Z"}}}